Regional Weather Roundup
Issued by NWS Goodland, KS

Home | Current Version | Previous Version | Text Only | Print | Product List | Glossary Off
Versions: 1 2 3 4 5 6 7 8 9 10 11 12 13 14 15 16 17 18 19 20 21 22 23 24 25 26 27 28 29 30 31 32 33 34 35 36 37 38 39 40 41 42 43 44 45 46 47 48 49 50

000
ASUS43 KGLD 230308
RWRGLD

GOODLAND FORECAST AREA HOURLY WEATHER ROUNDUP
NATIONAL WEATHER SERVICE GOODLAND KS
900 PM MDT FRI AUG 22 2014

...OFFICIAL OBSERVATIONS...

CITY           SKY/WX    TMP DP  RH WIND       PRES   REMARKS
GOODLAND KS    TSTM      65  64  97 NW10      30.01R FOG
HILL CITY KS   CLOUDY    71  67  87 SE8       29.94R
IMPERIAL NEB   LGT RAIN  70  66  87 N8        29.99S
MCCOOK NEB     TSTM      71  68  90 S24G36    30.02R
AKRON CO       HVY RAIN  60  59  96 NW13      30.08S FOG
BURLINGTON CO  CLOUDY    65  63  93 NE5       30.02F
LIMON CO       CLOUDY    60  59  96 N16G25    30.03F
$$

...UNOFFICIAL OBSERVATIONS...

CITY           SKY/WX    TMP DP  RH WIND       PRES   REMARKS
COLBY KS       CLOUDY    68  68 100 S8        30.04R
NORTON KS      PTCLDY    68  63  83 CALM      29.90
SHARON SPRINGS   N/A     68  64  88 NE8         N/A
WAKEENEY KS      N/A     71  64  80 MISG        N/A
KIT CARSON CO    N/A     62  59  91 MISG        N/A
YUMA CO          N/A     63  61  92 CALM        N/A
$$


USA.gov is the U.S. government's official web portal to all federal, state and local government web resources and services.